When you browse on this site, cookies collect data to enhance your experience and personalize the content and advertising you see.
Visit our Privacy Policy to learn more. By continuing to use the site, you agree to this use of cookies and data.
  • In Portugal
  • List of Countries
  • For 7 days
  • Water Temperature
  • Weather Map
  • Weather Widgets
  • user-avatar
    Login

    Hourly Weather Sydney

    Today, 26 February, Wednesday

    Time Temperature Precipitation Wind Pressure Humidity
    00:00 +25°C° 0 mm 4 mps 757 mmHg 73%
    01:00 +25°C° 0 mm 4 mps 756 mmHg 74%
    02:00 +23°C° 0 mm 4 mps 756 mmHg 74%
    03:00 +24°C° 0 mm 3 mps 755 mmHg 75%
    04:00 +24°C° 0 mm 3 mps 755 mmHg 68%
    05:00 +24°C° 0 mm 3 mps 755 mmHg 67%
    06:00 +25°C° 0 mm 3 mps 755 mmHg 66%
    07:00 +25°C° 0 mm 4 mps 755 mmHg 65%
    08:00 +27°C° 0 mm 4 mps 755 mmHg 58%
    09:00 +30°C° 0 mm 4 mps 754 mmHg 51%
    10:00 +33°C° 0 mm 3 mps 754 mmHg 43%
    11:00 +35°C° 0 mm 3 mps 753 mmHg 39%
    12:00 +36°C° 0 mm 4 mps 753 mmHg 36%
    13:00 +37°C° 0 mm 4 mps 752 mmHg 32%
    14:00 +36°C° 0.1 mm 4 mps 752 mmHg 33%
    15:00 +36°C° 0.1 mm 3 mps 751 mmHg 34%
    16:00 +36°C° 0.1 mm 3 mps 751 mmHg 35%
    17:00 +32°C° 0.1 mm 6 mps 752 mmHg 47%
    18:00 +27°C° 0.1 mm 9 mps 753 mmHg 60%
    19:00 +22°C° 0.1 mm 12 mps 754 mmHg 73%
    20:00 +22°C° 0 mm 11 mps 755 mmHg 73%
    21:00 +22°C° 0 mm 10 mps 755 mmHg 72%
    22:00 +21°C° 0 mm 8 mps 756 mmHg 72%
    23:00 +21°C° 0 mm 8 mps 756 mmHg 71%

    Tomorrow, 27 February, Thursday

    Time Temperature Precipitation Wind Pressure Humidity
    00:00 +21°C° 0 mm 7 mps 757 mmHg 69%
    01:00 +20°C° 0 mm 6 mps 757 mmHg 68%
    02:00 +20°C° 0 mm 6 mps 757 mmHg 65%
    03:00 +20°C° 0 mm 5 mps 757 mmHg 63%
    04:00 +20°C° 0 mm 5 mps 757 mmHg 60%
    05:00 +20°C° 0 mm 4 mps 757 mmHg 60%
    06:00 +21°C° 0 mm 3 mps 757 mmHg 60%
    07:00 +21°C° 0 mm 2 mps 758 mmHg 60%
    08:00 +23°C° 0 mm 2 mps 758 mmHg 56%
    09:00 +24°C° 0 mm 2 mps 757 mmHg 53%
    10:00 +26°C° 0 mm 2 mps 757 mmHg 49%
    11:00 +26°C° 0 mm 3 mps 757 mmHg 50%
    12:00 +26°C° 0 mm 3 mps 756 mmHg 51%
    13:00 +27°C° 0 mm 4 mps 756 mmHg 52%
    14:00 +27°C° 0 mm 4 mps 755 mmHg 54%
    15:00 +27°C° 0 mm 5 mps 754 mmHg 56%
    16:00 +26°C° 0 mm 5 mps 754 mmHg 57%
    17:00 +25°C° 0 mm 5 mps 754 mmHg 64%
    18:00 +23°C° 0 mm 5 mps 754 mmHg 70%
    19:00 +22°C° 0 mm 5 mps 754 mmHg 76%
    20:00 +22°C° 0 mm 4 mps 755 mmHg 78%
    21:00 +22°C° 0 mm 4 mps 755 mmHg 81%
    22:00 +22°C° 0 mm 3 mps 756 mmHg 83%
    23:00 +21°C° 0 mm 3 mps 755 mmHg 85%

    Day after tomorrow, 28 February, Friday

    Time Temperature Precipitation Wind Pressure Humidity
    00:00 +21°C° 0 mm 3 mps 755 mmHg 86%
    01:00 +20°C° 0 mm 2 mps 755 mmHg 88%
    02:00 +20°C° 0 mm 3 mps 755 mmHg 85%
    03:00 +19°C° 0 mm 3 mps 755 mmHg 82%
    04:00 +19°C° 0 mm 3 mps 755 mmHg 79%
    05:00 +19°C° 0 mm 3 mps 755 mmHg 66%
    06:00 +19°C° 0 mm 4 mps 756 mmHg 54%
    07:00 +19°C° 0 mm 4 mps 756 mmHg 41%
    08:00 +21°C° 0 mm 5 mps 757 mmHg 38%
    09:00 +23°C° 0 mm 5 mps 757 mmHg 34%
    10:00 +26°C° 0 mm 6 mps 757 mmHg 30%
    11:00 +26°C° 0 mm 6 mps 757 mmHg 37%
    12:00 +27°C° 0 mm 7 mps 757 mmHg 45%
    13:00 +27°C° 0 mm 8 mps 757 mmHg 52%
    14:00 +26°C° 0 mm 8 mps 757 mmHg 54%
    15:00 +26°C° 0 mm 8 mps 757 mmHg 56%
    16:00 +24°C° 0 mm 8 mps 758 mmHg 58%
    17:00 +23°C° 0 mm 7 mps 758 mmHg 62%
    18:00 +22°C° 0 mm 7 mps 759 mmHg 66%
    19:00 +21°C° 0 mm 6 mps 760 mmHg 69%
    20:00 +21°C° 0.1 mm 6 mps 761 mmHg 71%
    21:00 +21°C° 0.1 mm 5 mps 761 mmHg 73%
    22:00 +20°C° 0.1 mm 5 mps 762 mmHg 74%
    23:00 +20°C° 0.1 mm 5 mps 762 mmHg 74%

    29 February, Saturday

    Time Temperature Precipitation Wind Pressure Humidity
    00:00 +20°C° 0.1 mm 5 mps 762 mmHg 74%
    01:00 +20°C° 0.1 mm 4 mps 761 mmHg 74%
    02:00 +20°C° 0 mm 4 mps 761 mmHg 73%
    03:00 +19°C° 0 mm 4 mps 761 mmHg 73%
    04:00 +19°C° 0 mm 4 mps 761 mmHg 72%
    05:00 +19°C° 0 mm 4 mps 762 mmHg 71%
    06:00 +20°C° 0 mm 4 mps 762 mmHg 71%
    07:00 +20°C° 0 mm 4 mps 762 mmHg 70%
    08:00 +21°C° 0.1 mm 4 mps 762 mmHg 68%
    09:00 +22°C° 0.1 mm 4 mps 762 mmHg 66%
    10:00 +23°C° 0.1 mm 4 mps 762 mmHg 63%
    11:00 +25°C° 0.1 mm 4 mps 762 mmHg 64%
    12:00 +25°C° 0.1 mm 4 mps 761 mmHg 64%
    13:00 +25°C° 0.1 mm 5 mps 761 mmHg 64%
    14:00 +25°C° 0.2 mm 4 mps 760 mmHg 67%
    15:00 +25°C° 0.2 mm 4 mps 760 mmHg 70%
    16:00 +23°C° 0.2 mm 4 mps 759 mmHg 73%
    17:00 +24°C° 0.1 mm 3 mps 760 mmHg 78%
    18:00 +22°C° 0.1 mm 3 mps 760 mmHg 83%
    19:00 +23°C° 0.1 mm 2 mps 761 mmHg 88%
    20:00 +22°C° 0.1 mm 3 mps 761 mmHg 88%
    21:00 +22°C° 0.1 mm 3 mps 761 mmHg 89%
    22:00 +22°C° 0.1 mm 3 mps 761 mmHg 89%
    23:00 +21°C° 0.1 mm 3 mps 761 mmHg 90%

    1 March, Sunday

    Time Temperature Precipitation Wind Pressure Humidity
    00:00 +21°C° 0.1 mm 3 mps 761 mmHg 91%
    01:00 +20°C° 0.1 mm 2 mps 760 mmHg 91%
    02:00 +20°C° 0 mm 2 mps 760 mmHg 92%
    03:00 +20°C° 0 mm 2 mps 760 mmHg 92%
    04:00 +21°C° 0 mm 1 mps 760 mmHg 92%
    05:00 +21°C° 0 mm 1 mps 760 mmHg 90%
    06:00 +22°C° 0 mm 1 mps 760 mmHg 89%
    07:00 +22°C° 0 mm 1 mps 761 mmHg 87%
    08:00 +24°C° 0 mm 1 mps 760 mmHg 78%
    09:00 +26°C° 0 mm 2 mps 760 mmHg 69%
    10:00 +28°C° 0 mm 2 mps 760 mmHg 60%
    11:00 +29°C° 0 mm 2 mps 760 mmHg 57%
    12:00 +29°C° 0 mm 3 mps 759 mmHg 54%
    13:00 +30°C° 0 mm 4 mps 759 mmHg 51%
    14:00 +30°C° 0 mm 4 mps 758 mmHg 52%
    15:00 +30°C° 0 mm 5 mps 758 mmHg 52%
    16:00 +30°C° 0 mm 5 mps 757 mmHg 52%
    17:00 +28°C° 0 mm 5 mps 758 mmHg 58%
    18:00 +26°C° 0 mm 4 mps 758 mmHg 64%
    19:00 +25°C° 0 mm 4 mps 758 mmHg 70%
    20:00 +23°C° 0 mm 4 mps 758 mmHg 72%
    21:00 +23°C° 0 mm 4 mps 759 mmHg 74%
    22:00 +22°C° 0 mm 3 mps 759 mmHg 76%
    23:00 +22°C° 0 mm 3 mps 758 mmHg 78%

    2 March, Monday

    Time Temperature Precipitation Wind Pressure Humidity
    00:00 +22°C° 0 mm 3 mps 758 mmHg 79%
    01:00 +21°C° 0 mm 2 mps 758 mmHg 81%
    02:00 +21°C° 0 mm 2 mps 758 mmHg 82%
    03:00 +21°C° 0 mm 2 mps 758 mmHg 83%
    04:00 +21°C° 0 mm 1 mps 758 mmHg 85%
    05:00 +22°C° 0 mm 1 mps 758 mmHg 83%
    06:00 +22°C° 0 mm 1 mps 759 mmHg 81%
    07:00 +23°C° 0 mm 1 mps 759 mmHg 80%
    08:00 +25°C° 0 mm 1 mps 759 mmHg 73%
    09:00 +27°C° 0 mm 2 mps 759 mmHg 67%
    10:00 +29°C° 0 mm 2 mps 759 mmHg 60%
    11:00 +29°C° 0 mm 3 mps 759 mmHg 59%
    12:00 +30°C° 0 mm 3 mps 759 mmHg 57%
    13:00 +32°C° 0 mm 4 mps 758 mmHg 55%
    14:00 +30°C° 0 mm 3 mps 758 mmHg 58%
    15:00 +30°C° 0 mm 3 mps 758 mmHg 60%
    16:00 +29°C° 0 mm 3 mps 758 mmHg 63%
    17:00 +28°C° 0 mm 2 mps 758 mmHg 69%
    18:00 +26°C° 0 mm 2 mps 759 mmHg 75%
    19:00 +25°C° 0 mm 2 mps 759 mmHg 81%
    20:00 +25°C° 0 mm 2 mps 760 mmHg 83%
    21:00 +24°C° 0 mm 2 mps 760 mmHg 86%
    22:00 +24°C° 0 mm 2 mps 760 mmHg 88%
    23:00 +22°C° 0 mm 3 mps 760 mmHg 89%
    Show more